Theta_e
336 341 346 346 346 344 343 343 343 342 342 343 343 343 343 344 345 347 346 346 346 346 347 347 347 346 346 345 345 346 347 347 345 345 346 345 343 342 343 342 343 344 345
338 341 343 345 343 342 341 341 340 339 340 340 338 339 339 341 342 344 345 345 345 346 345 343 343 343 342 343 343 343 342 343 345 343 343 344 345 342 340 342 343 340 343
337 339 340 341 341 339 339 338 337 337 337 336 335 335 336 337 338 339 341 342 342 343 342 340 338 339 339 339 338 338 339 339 339 341 342 339 339 341 339 343 343 340 344
335 336 336 338 339 337 337 336 335 334 333 332 332 333 333 332 333 335 337 337 337 337 336 336 334 333 332 332 332 333 334 334 335 336 337 339 340 340 339 340 343 342 343
330 333 334 337 336 335 334 333 333 332 331 331 331 332 330 330 330 330 329 330 330 330 330 329 327 326 326 326 326 327 328 329 329 331 334 337 338 341 341 341 342 345 343
328 331 334 336 335 333 332 332 331 330 330 329 329 329 327 327 327 326 326 326 326 326 326 324 323 322 321 321 321 321 321 323 323 320 331 336 336 343 343 343 342 342 344
325 329 331 334 334 331 331 330 329 328 327 326 326 326 324 324 324 323 323 323 323 322 322 320 319 318 318 318 318 317 316 317 312 310 331 328 331 341 345 344 344 342 343
322 325 326 327 329 330 330 328 327 326 325 324 323 322 322 321 321 320 320 320 319 318 318 317 316 315 315 314 314 313 313 314 310 305 325 323 330 336 340 341 343 342 341
321 321 321 322 324 326 326 326 325 323 322 321 320 318 317 316 316 316 316 315 315 315 314 313 313 312 312 312 312 312 312 313 307 304 317 315 327 332 334 336 337 341 342
319 318 317 314 313 312 314 321 320 319 318 316 314 313 312 312 311 310 309 310 310 310 310 310 311 311 311 313 313 312 313 310 301 303 309 312 321 327 329 331 332 334 336
316 315 314 312 311 309 309 312 314 315 313 311 309 310 309 301 302 301 305 306 307 307 307 309 309 310 309 308 310 312 313 301 301 302 306 314 315 318 322 324 326 330 332
312 311 312 311 310 308 310 305 304 305 302 301 300 301 301 298 298 300 303 305 304 306 308 308 308 308 304 299 299 303 299 299 300 300 304 311 312 313 316 319 321 324 326
311 311 310 309 309 306 304 302 300 299 298 298 298 299 299 299 298 297 297 297 297 302 298 299 299 299 298 298 298 298 298 299 298 299 305 308 308 310 314 317 318 320 321
310 308 307 305 305 302 302 300 298 298 298 298 298 298 297 296 296 295 295 295 295 296 295 295 295 296 296 297 298 297 298 297 297 298 301 306 307 309 313 316 317 317 319
309 308 306 303 303 301 300 299 298 298 298 297 297 298 297 296 294 295 294 294 294 294 294 293 294 294 294 296 297 297 297 297 297 298 298 307 307 310 314 315 317 318 319
309 308 305 303 302 300 298 298 297 296 297 297 296 296 297 295 294 294 294 294 293 293 293 293 293 293 293 294 295 297 297 297 297 297 297 301 309 312 315 315 317 318 319
308 308 305 302 301 299 298 298 297 297 297 296 296 296 296 296 293 293 292 292 292 293 293 292 293 293 292 294 294 295 296 297 297 298 298 301 304 309 311 312 312 313 314
306 305 305 304 300 298 297 297 297 296 295 295 295 295 296 296 294 292 292 292 292 292 292 291 291 291 291 292 292 293 294 295 297 297 298 298 301 304 306 307 308 308 309
305 303 302 301 299 297 297 296 295 294 294 294 294 294 295 295 295 292 292 292 292 291 291 291 290 290 289 290 292 293 292 292 294 298 296 298 299 299 298 302 302 303 305
299 302 301 300 298 297 296 294 293 293 293 293 292 293 294 294 294 292 291 291 292 290 290 290 289 289 289 290 293 293 291 292 293 294 295 298 296 296 296 296 296 296 301
293 296 299 298 297 297 293 292 291 291 291 291 292 293 292 293 293 291 290 290 290 289 289 289 289 288 288 290 288 290 291 292 293 294 295 294 295 295 294 293 293 293 294
292 293 295 297 297 296 294 291 292 291 291 291 292 291 292 292 292 291 290 289 289 288 288 288 288 288 288 289 287 287 285 290 292 293 293 293 292 293 293 293 293 293 292
291 291 293 296 296 295 294 293 291 290 288 288 288 289 290 291 291 290 289 288 288 288 287 287 287 287 286 288 289 287 284 284 287 291 291 291 291 290 290 291 292 292 293
291 291 293 295 295 294 294 292 289 287 286 286 288 288 289 289 289 289 289 288 287 287 286 287 289 287 286 285 287 291 288 287 284 284 289 289 290 290 289 287 288 291 291
291 291 292 294 294 293 291 291 288 286 287 287 287 287 287 287 288 288 287 287 286 286 286 286 286 285 285 284 284 284 285 286 286 284 283 285 287 284 284 285 284 285 290
289 289 290 292 291 291 290 288 287 287 286 285 285 284 284 285 285 286 286 285 285 285 285 285 285 284 284 284 284 283 283 282 282 282 282 283 284 287 288 290 285 287 285
Wind_Speed
5 7 13 17 18 17 16 16 15 14 14 15 15 15 14 13 14 16 14 13 13 12 12 12 12 11 10 8 9 9 8 5 5 3 3 4 5 5 5 5 6 5 6
9 9 13 16 18 16 16 16 15 15 16 16 15 15 15 15 14 15 16 16 14 15 15 12 12 11 10 12 12 11 11 11 9 4 4 5 7 5 3 4 4 3 5
12 10 12 17 17 17 16 16 16 15 16 15 15 15 15 16 16 14 14 14 15 15 14 13 11 11 13 13 12 12 10 10 9 8 6 3 1 2 2 2 2 3 5
12 10 11 16 18 17 16 16 16 16 15 15 15 15 16 15 16 16 16 14 13 13 12 11 12 12 12 11 11 11 12 11 11 9 3 4 3 2 1 2 3 3 3
11 9 10 16 17 18 16 15 16 16 14 15 15 15 15 15 15 15 14 14 13 13 12 12 12 11 11 11 11 11 11 12 11 6 4 3 1 2 1 1 1 2 4
10 9 11 15 16 18 15 16 16 15 15 15 15 15 15 14 15 14 14 13 12 12 12 11 11 10 10 11 11 12 12 12 10 6 4 5 4 7 6 6 2 1 4
10 8 9 13 15 15 15 16 16 15 15 14 14 14 14 14 14 13 13 12 12 11 10 10 10 10 10 10 11 12 13 13 7 7 2 5 5 8 12 5 6 4 4
12 9 8 10 12 13 15 15 15 15 15 14 14 14 13 13 13 13 12 11 11 10 9 9 8 9 10 10 11 11 11 11 7 6 5 4 8 8 9 11 6 5 4
12 10 8 6 8 11 11 13 14 15 15 14 14 14 13 13 13 12 11 10 9 8 8 8 9 9 9 8 9 10 11 11 5 4 5 4 9 9 9 9 8 9 3
11 12 10 7 7 7 6 11 13 14 14 14 14 14 13 13 11 10 8 9 9 8 8 8 9 9 9 10 9 10 11 10 6 4 3 3 8 9 9 9 9 5 5
11 11 11 9 7 7 7 7 10 13 14 14 12 11 8 5 5 7 7 7 8 7 6 8 7 9 9 10 12 9 11 3 5 3 2 5 6 6 8 8 7 8 4
12 11 12 12 10 9 7 7 6 6 4 5 5 6 4 5 5 5 4 5 3 7 8 8 9 8 7 4 4 7 3 5 4 3 0 4 6 6 7 6 6 6 5
11 10 11 11 12 9 7 5 3 3 3 3 6 5 5 4 3 3 3 2 3 5 3 5 5 3 5 3 4 4 4 4 3 3 1 3 4 6 7 8 6 5 3
13 9 9 8 9 7 5 5 5 4 4 4 4 5 4 3 3 3 2 3 3 1 3 3 3 4 5 5 5 4 4 3 3 2 1 1 3 5 7 8 7 5 5
13 12 12 10 9 7 8 5 4 5 4 5 5 4 4 4 4 3 2 2 2 2 2 2 3 3 4 5 5 5 5 4 4 2 1 2 3 5 7 6 5 5 5
15 15 14 12 11 10 7 7 5 4 5 5 4 5 5 4 4 3 3 2 3 2 1 2 2 3 3 4 5 5 5 4 4 3 1 1 1 4 6 1 3 6 7
14 15 15 14 12 11 9 7 6 5 5 4 4 6 5 5 4 4 3 2 2 1 2 3 3 3 4 4 5 5 4 5 4 4 2 3 1 3 2 5 3 1 2
12 15 14 12 11 10 9 7 5 5 5 5 5 5 6 5 5 4 3 3 2 2 2 1 2 3 3 4 3 4 4 4 4 4 3 3 3 2 5 4 3 2 1
12 13 13 10 12 10 7 6 6 7 5 4 4 4 6 5 5 4 2 2 3 2 2 1 1 1 2 4 5 4 4 4 4 3 4 1 5 4 3 4 4 3 1
9 10 13 11 11 9 6 5 4 4 4 4 4 5 6 5 5 3 2 2 2 2 2 2 1 2 2 4 5 5 5 5 4 3 3 4 5 5 4 4 1 2 2
8 9 12 13 11 10 6 6 4 5 4 3 4 6 6 5 5 4 2 2 2 2 1 1 1 3 3 2 3 4 3 3 3 3 3 4 5 5 4 4 3 1 2
9 9 8 12 13 9 7 4 4 4 2 4 4 5 6 5 5 5 3 2 2 1 1 2 1 1 2 3 0 1 4 4 3 1 3 3 5 4 4 4 3 3 3
11 10 10 12 14 11 10 6 4 4 3 3 3 3 4 6 6 5 4 3 1 2 1 1 1 1 1 2 2 2 2 2 3 2 1 3 5 4 3 3 3 3 5
12 8 8 13 14 12 13 8 7 6 5 4 4 4 5 7 6 5 4 3 2 1 1 1 1 1 2 1 3 2 1 2 1 3 2 0 2 5 4 1 2 2 4
11 10 8 12 13 12 10 11 8 6 4 3 3 6 5 5 6 6 5 4 3 2 2 2 1 3 1 2 1 2 2 1 1 2 2 2 3 2 1 2 1 1 4
10 9 9 13 11 11 11 9 9 8 7 6 5 5 4 3 4 5 5 5 4 3 3 3 2 4 2 0 1 1 1 0 1 1 1 1 1 2 1 2 2 2 1
Wind_Direction
168 138 128 116 112 108 106 102 97 94 89 83 83 81 80 77 70 67 78 83 85 86 80 70 62 52 39 43 33 28 19 2 355 11 24 33 32 19 46 44 34 96 99
126 125 127 115 110 112 108 103 101 98 98 96 93 89 87 82 76 70 67 73 82 79 70 65 59 54 48 43 39 33 28 17 11 17 15 12 10 344 30 47 58 89 101
113 116 119 115 114 113 114 112 110 105 101 98 97 93 90 88 86 82 73 71 71 72 72 63 58 51 45 37 33 25 21 16 8 358 347 326 323 288 314 99 78 78 85
117 116 117 119 122 117 115 115 114 109 105 104 98 97 91 86 85 85 81 75 70 69 67 63 55 47 41 33 23 20 16 10 1 349 355 350 341 161 284 175 140 147 95
114 116 123 125 126 120 122 123 119 112 113 107 105 100 95 90 88 87 85 82 77 73 68 62 56 47 38 30 22 15 9 0 351 344 345 39 35 163 241 27 50 156 154
118 125 128 132 128 116 135 129 124 123 117 114 110 105 100 96 92 87 85 83 79 74 69 60 52 44 34 28 19 11 5 358 354 338 328 47 41 351 292 286 299 256 167
129 127 132 132 120 138 141 136 131 126 121 114 109 105 102 98 96 91 88 85 79 71 64 56 46 38 31 24 16 9 4 357 354 345 49 58 18 9 9 297 271 280 325
134 129 122 108 129 149 140 136 134 127 122 118 112 106 101 97 94 89 85 82 77 71 63 52 40 29 20 13 8 5 359 357 359 345 49 37 19 15 4 2 330 292 261
137 125 117 110 113 117 124 132 133 129 127 121 115 109 106 102 95 89 85 82 75 66 56 41 27 16 10 7 2 357 351 346 355 357 57 23 15 14 6 5 357 13 324
141 137 132 126 115 103 103 117 126 131 128 124 122 121 117 111 104 100 86 80 72 61 50 35 22 13 7 358 334 335 348 358 3 28 56 41 20 13 1 354 350 341 352
150 154 143 144 132 123 115 121 122 131 134 135 134 135 126 114 114 103 98 86 64 57 50 28 18 9 12 5 6 327 346 349 355 21 30 25 21 6 346 338 338 338 351
159 158 160 157 152 150 145 133 136 142 148 150 146 142 133 122 135 129 113 86 51 29 43 24 18 25 14 1 349 360 351 341 354 351 37 30 13 346 319 305 310 321 324
156 160 171 164 157 154 149 154 157 161 166 152 143 138 137 118 105 104 107 73 55 49 25 22 11 8 358 352 337 334 337 344 338 345 4 35 7 336 303 287 274 268 275
169 161 164 157 155 146 145 160 171 157 159 144 151 142 126 125 120 113 105 100 82 43 44 26 6 349 349 337 328 318 323 325 326 331 276 4 353 317 286 270 256 232 216
175 172 172 158 159 151 152 161 163 168 154 156 147 136 132 139 135 125 119 107 91 75 64 19 355 337 329 322 317 309 303 295 309 324 253 295 328 304 274 241 218 206 174
177 178 170 168 165 154 160 160 166 156 153 150 147 153 134 134 134 125 118 106 85 93 37 357 322 322 313 313 309 297 289 275 271 282 188 244 320 319 265 156 196 179 177
180 173 173 167 164 161 163 161 157 159 148 142 145 148 141 126 125 128 127 120 126 95 39 6 350 351 343 330 323 315 303 296 274 258 224 175 214 55 219 35 47 160 156
162 167 169 170 165 162 161 158 153 151 151 154 155 148 149 140 128 117 129 117 132 68 60 15 348 344 336 326 310 302 299 299 287 249 212 173 175 112 110 114 74 86 89
164 155 164 162 164 159 158 151 148 151 149 159 146 149 156 145 141 132 129 135 110 71 22 4 1 32 319 315 298 288 286 289 277 245 231 185 177 141 133 135 125 84 25
156 157 160 164 163 151 141 133 130 140 145 152 159 158 158 155 151 134 124 156 120 83 4 17 353 317 278 282 298 288 267 256 254 220 221 143 122 124 134 116 117 328 94
154 151 160 159 166 151 151 149 148 161 151 150 158 150 156 152 152 144 149 143 153 138 197 294 308 328 317 322 326 323 312 248 231 213 155 150 126 117 108 81 105 68 350
166 172 157 165 165 163 154 134 136 137 154 150 149 150 151 151 148 154 159 157 115 131 351 339 285 325 293 348 316 274 328 344 344 233 135 148 143 119 91 66 57 84 70
180 181 173 171 167 159 149 134 95 92 71 103 161 156 170 160 161 149 148 141 146 132 212 264 279 220 247 313 8 162 337 286 330 5 188 144 144 115 102 78 46 78 97
189 179 176 165 163 157 154 155 153 163 160 186 166 160 169 163 160 162 169 158 170 181 211 232 287 201 140 253 317 12 221 166 45 335 358 11 120 138 139 102 99 90 96
165 177 163 158 157 155 155 157 156 149 158 155 143 155 152 162 165 165 168 172 190 197 222 226 188 88 95 131 165 357 350 327 175 173 275 323 38 25 153 144 146 118 108
150 148 150 154 152 148 150 150 157 163 156 141 142 146 164 172 173 176 171 171 181 194 210 210 174 143 133 136 171 229 184 153 22 47 245 358 302 326 297 122 204 163 110